TimeIST,TemperatureF,Dew PointF,Humidity,Sea Level PressureIn,VisibilityMPH,Wind Direction,Wind SpeedMPH,Gust SpeedMPH,PrecipitationIn,Events,Conditions,WindDirDegrees,DateUTC
1:00 AM,32,27,74,30.19,,East,8.9,,,,,90,2013-04-03 00:00:00
6:30 AM,32.0,26.6,80,30.15,6.2,East,9.2,-,N/A,,Partly Cloudy,90,2013-04-03 05:30:00
7:00 AM,31,27,77,30.20,16,East,11.2,,,,Scattered Clouds,90,2013-04-03 06:00:00
7:00 AM,32.0,26.6,80,30.15,6.2,East,10.4,-,N/A,,Partly Cloudy,90,2013-04-03 06:00:00
7:30 AM,30.2,26.6,86,30.15,6.2,East,10.4,-,N/A,,Partly Cloudy,90,2013-04-03 06:30:00
8:00 AM,32.0,28.4,87,30.15,6.2,East,9.2,-,N/A,,Partly Cloudy,80,2013-04-03 07:00:00
8:30 AM,33.8,28.4,81,30.18,6.2,East,11.5,-,N/A,,Partly Cloudy,90,2013-04-03 07:30:00
9:00 AM,35.6,30.2,81,30.18,6.2,East,12.7,-,N/A,,Partly Cloudy,90,2013-04-03 08:00:00
9:30 AM,37.4,30.2,75,30.18,6.2,East,13.8,-,N/A,,Partly Cloudy,90,2013-04-03 08:30:00
10:00 AM,37.4,30.2,75,30.18,6.2,East,13.8,-,N/A,,Partly Cloudy,100,2013-04-03 09:00:00
10:30 AM,39.2,30.2,70,30.18,6.2,East,15.0,-,N/A,,Partly Cloudy,90,2013-04-03 09:30:00
11:00 AM,37.4,28.4,70,30.18,6.2,East,13.8,-,N/A,,Scattered Clouds,100,2013-04-03 10:00:00
11:30 AM,41.0,28.4,61,30.18,6.2,East,10.4,-,N/A,,Scattered Clouds,100,2013-04-03 10:30:00
12:00 PM,41.0,28.4,61,30.18,6.2,East,12.7,-,N/A,,Partly Cloudy,100,2013-04-03 11:00:00
12:30 PM,42.8,26.6,53,30.18,6.2,East,13.8,-,N/A,,Partly Cloudy,100,2013-04-03 11:30:00
1:00 PM,43,27,40,30.22,31,East,13.4,,,,Scattered Clouds,100,2013-04-03 12:00:00
1:00 PM,42.8,26.6,53,30.18,6.2,East,13.8,25.3,N/A,,Partly Cloudy,100,2013-04-03 12:00:00
1:30 PM,44.6,24.8,46,30.18,6.2,East,15.0,-,N/A,,Partly Cloudy,90,2013-04-03 12:30:00
2:00 PM,44.6,24.8,46,30.18,6.2,East,11.5,-,N/A,,Partly Cloudy,90,2013-04-03 13:00:00
2:30 PM,46.4,26.6,46,30.18,6.2,ESE,11.5,-,N/A,,Partly Cloudy,110,2013-04-03 13:30:00
3:00 PM,46.4,24.8,43,30.18,6.2,East,11.5,23.0,N/A,,Partly Cloudy,100,2013-04-03 14:00:00
3:30 PM,46.4,26.6,46,30.18,6.2,East,10.4,-,N/A,,Partly Cloudy,90,2013-04-03 14:30:00
4:00 PM,46.4,24.8,43,30.18,6.2,ESE,10.4,-,N/A,,Partly Cloudy,110,2013-04-03 15:00:00
4:30 PM,46.4,24.8,43,30.15,-9999.0,East,11.5,-,N/A,,Clear,90,2013-04-03 15:30:00
5:00 PM,46.4,23.0,40,30.15,-9999.0,East,12.7,-,N/A,,Clear,90,2013-04-03 16:00:00
5:30 PM,46.4,23.0,40,30.15,-9999.0,East,9.2,-,N/A,,Clear,90,2013-04-03 16:30:00
6:00 PM,46.4,23.0,40,30.15,-9999.0,East,12.7,-,N/A,,Clear,100,2013-04-03 17:00:00
7:00 PM,44,24,32,30.21,31,ESE,11.2,,,,Clear,110,2013-04-03 18:00:00